Overview Statistics Trail Chart Weather Telemetry Raw packets
 

This is the latest recevied weather packets stored in our database for station/object OK2ILA-10. If no packets are shown the sender has not sent any weather packets the latest 10 day(s).

<< 30 31 32 33 34 35 36 >>
Time Temp. Humidity Pressure Rain* Wind** Luminosity Snow
1788432728 22.78° C 50% 1020.2 hPa - - - -
1788432717 22.78° C 50% 1020.2 hPa - - - -
1788432117 23.33° C 48% 1020.3 hPa - - - -
1788431520 25.56° C 42% 1020.2 hPa - - - -
1788431517 25.56° C 42% 1020.2 hPa - - - -
1788430920 25° C 43% 1020.2 hPa - - - -
1788430916 25° C 43% 1020.2 hPa - - - -
1788430320 25° C 43% 1020.3 hPa - - - -
1788430316 25° C 43% 1020.3 hPa - - - -
1788429716 25° C 43% 1020.2 hPa - - - -
1788429120 23.89° C 46% 1020.3 hPa - - - -
1788429116 23.89° C 46% 1020.3 hPa - - - -
1788428519 24.44° C 46% 1020.4 hPa - - - -
1788428516 24.44° C 46% 1020.4 hPa - - - -
1788427919 25° C 46% 1020.6 hPa - - - -
1788427915 25° C 46% 1020.6 hPa - - - -
1788427319 23.89° C 49% 1020.7 hPa - - - -
1788427315 23.89° C 49% 1020.7 hPa - - - -
1788426719 23.33° C 50% 1020.7 hPa - - - -
1788426715 23.33° C 50% 1020.7 hPa - - - -
1788426119 23.89° C 50% 1020.7 hPa - - - -
1788426115 23.89° C 50% 1020.7 hPa - - - -
1788425518 23.33° C 51% 1020.9 hPa - - - -
1788425515 23.33° C 51% 1020.9 hPa - - - -
1788424918 22.78° C 52% 1021 hPa - - - -

* Rain since midnight (hover to see other rain measurements)
** Current wind speed in m/s (hover to see current wind gust speed)